Location: Asheville, NC
(35.6000°N, 82.5500°W)
Time: 04:50:27
(UTC-05:00)

Hubble Space Telescope - Pass Details

Date: 03 January 2018
Orbit: 537 x 541 km, 28.5° (Epoch: 22 January)

Event Time Altitude Azimuth Distance (km) Brightness Sun altitude
Exits shadow 06:51:49 - 242° (WSW) 2,459 3.8 -9.8°
Reaches altitude 10° 06:53:43 10° 232° (SW) 1,781 3.1 -9.4°
Maximum altitude 06:57:15 27° 173° (S) 1,034 2.6 -8.7°
Drops below altitude 10° 07:00:46 10° 114° (ESE) 1,780 5.2 -8.1°
Sets 07:03:15 0° 102° (ESE) 2,671 6.5 -7.6°
